Theta_e
315 314 316 316 314 315 317 318 317 315 315 317 317 320 321 321 321 320 320 319 319 319 319 319 319 318 318 319 319 320 319 322 323 322 321 326 326 327 327 324 321 322 338 343
313 316 316 315 315 315 317 318 317 315 316 316 316 319 321 321 321 321 320 320 319 319 318 319 319 319 320 320 320 320 320 319 319 322 323 323 323 332 330 332 329 323 324 339
316 316 316 317 318 318 317 318 317 317 316 316 317 321 322 321 321 321 320 320 320 319 319 318 319 319 320 320 320 320 320 320 319 319 321 324 324 324 328 327 327 325 322 324
314 314 316 317 318 316 318 317 316 317 318 318 317 319 320 322 321 320 320 320 320 320 319 319 319 319 320 320 320 321 321 321 321 321 320 321 324 324 324 323 327 327 322 322
315 315 314 315 315 316 316 317 318 320 319 317 318 316 317 321 323 320 320 321 320 320 319 318 319 319 320 320 321 321 321 321 321 321 321 321 322 324 324 324 324 328 328 322
314 314 314 314 314 315 316 319 315 313 311 314 319 318 316 322 323 320 319 320 320 320 318 317 318 319 319 320 320 320 320 321 321 321 321 323 322 322 323 324 324 326 324 325
312 313 313 313 313 313 314 314 313 317 316 316 316 318 318 320 322 321 319 319 319 319 318 317 317 319 319 319 319 319 320 320 321 321 322 322 323 323 323 323 323 323 325 324
313 313 313 313 313 314 315 317 314 314 316 318 316 319 320 320 322 320 319 317 317 319 317 318 317 318 319 318 318 318 319 319 320 320 321 322 323 323 323 322 323 324 323 324
313 314 312 314 313 317 320 320 317 312 311 317 316 315 315 319 318 317 318 317 317 319 318 318 317 316 317 318 318 318 318 319 320 320 320 321 322 323 323 323 323 322 323 323
312 313 313 312 317 317 318 318 318 313 313 322 318 317 317 318 318 316 315 317 317 318 318 318 317 316 316 316 317 317 317 318 320 321 320 321 321 322 322 323 322 321 319 322
312 311 314 312 316 318 316 317 317 314 313 317 317 317 314 320 317 315 314 317 316 317 318 318 317 315 315 315 315 316 316 315 317 320 321 321 322 321 322 323 324 319 320 321
311 308 311 312 312 313 318 319 316 321 322 318 321 321 318 317 315 315 315 317 316 317 318 318 316 314 314 314 314 314 315 315 316 318 320 320 321 322 322 323 323 321 325 325
311 310 312 310 310 314 318 317 316 317 316 317 325 318 315 315 315 315 315 317 316 316 318 318 315 313 313 313 312 312 312 314 317 317 318 320 321 322 323 324 324 320 327 329
312 310 311 310 312 313 317 317 317 318 321 321 320 318 318 316 313 313 316 316 316 316 318 317 313 313 312 311 314 311 311 314 315 318 318 319 321 323 323 325 323 325 327 328
313 316 314 314 314 315 317 317 317 318 319 319 319 318 318 314 312 314 316 316 316 316 318 315 312 312 311 310 312 311 312 313 315 317 317 319 321 322 325 323 322 325 327 327
311 315 315 315 316 317 318 319 321 321 321 320 319 318 314 314 315 315 316 316 315 317 316 313 311 310 309 309 308 308 310 312 314 314 316 320 321 324 324 325 328 328 327 324
311 312 313 318 316 317 321 320 321 320 319 318 319 317 313 313 313 315 316 315 316 318 315 312 310 309 309 307 306 307 309 311 312 313 315 320 322 324 325 326 326 326 326 326
311 312 314 317 317 322 317 319 321 322 320 317 316 316 315 314 315 316 316 316 318 317 314 311 309 308 307 305 305 306 308 309 311 313 315 320 321 323 324 325 326 326 327 328
310 313 319 319 318 318 318 321 320 320 318 315 316 315 315 316 314 315 315 315 317 316 313 311 309 307 305 305 305 306 307 308 309 311 314 316 318 321 322 323 324 324 324 323
312 312 315 318 322 316 315 317 317 316 316 314 315 314 314 314 315 313 316 316 318 316 313 311 308 305 304 306 305 305 306 307 307 309 311 313 314 317 319 320 321 318 322 320
314 314 315 314 320 319 315 314 314 317 314 314 315 317 316 313 314 316 316 317 317 315 311 310 307 305 305 305 305 304 305 305 305 307 309 310 311 312 311 313 312 312 313 313
314 315 315 314 317 318 311 313 315 311 314 315 316 316 315 316 316 316 316 317 316 314 311 309 307 306 304 305 304 304 304 304 305 307 307 307 308 307 305 309 309 309 309 310
310 310 311 312 313 311 311 310 312 313 312 313 312 314 314 315 315 315 316 317 315 313 310 308 306 305 304 304 304 303 302 303 304 305 305 305 305 303 303 305 308 308 307 305
310 309 309 310 309 309 310 310 310 313 313 314 315 315 315 315 315 315 316 317 315 312 309 307 305 304 303 304 303 303 302 303 304 303 304 304 303 301 300 300 301 300 299 300
309 309 308 307 307 309 310 309 310 313 313 313 315 315 315 316 316 316 317 316 315 311 309 307 303 303 303 303 302 301 300 302 302 302 303 302 302 302 301 300 300 300 298 298
309 307 307 307 308 308 309 310 309 309 313 311 310 311 311 313 316 316 317 316 314 311 309 307 303 302 302 302 301 300 300 301 301 301 301 301 302 301 301 301 298 298 296 296
Wind_Speed
4 5 1 4 7 4 4 3 3 4 4 3 2 5 4 2 11 17 20 23 26 28 31 32 32 30 28 27 25 23 20 17 17 22 27 29 34 36 35 33 29 29 31 31
6 1 4 5 2 4 3 2 4 5 4 2 4 5 4 2 0 5 12 19 25 31 35 36 37 37 36 35 33 30 26 23 23 22 23 24 30 36 40 41 38 32 32 33
3 5 5 4 2 3 2 2 3 5 3 3 1 1 4 3 1 7 13 17 23 27 33 37 39 40 37 37 34 30 27 23 21 21 28 27 27 34 40 44 45 38 32 33
2 6 6 5 3 3 2 2 3 4 4 3 3 4 4 4 5 4 14 22 26 32 34 36 39 40 37 35 30 29 26 22 18 19 23 30 33 31 32 43 44 43 36 32
5 5 7 7 5 3 6 4 2 2 1 1 2 3 5 1 3 6 13 22 28 31 33 36 37 35 34 33 31 31 29 24 20 19 20 25 33 35 32 30 42 44 42 37
3 5 3 3 4 2 5 1 4 3 3 2 1 4 5 2 1 5 9 22 25 30 34 36 36 34 34 32 31 31 31 28 26 22 21 23 30 35 35 34 32 42 43 40
6 4 5 6 6 4 9 6 4 5 4 4 1 2 7 3 2 2 9 23 26 29 35 38 38 37 35 35 33 32 31 30 30 27 27 26 25 31 38 37 35 33 42 45
4 6 5 7 1 3 4 3 4 4 2 5 3 4 4 3 0 10 15 22 29 28 33 38 38 38 37 35 35 33 31 29 30 31 31 30 29 28 32 39 41 40 38 42
4 5 3 3 2 2 1 4 3 5 2 2 4 6 6 4 6 12 19 28 31 29 33 38 41 38 39 33 34 34 33 31 30 31 34 36 31 29 30 29 36 44 42 40
2 2 1 5 4 4 5 5 3 4 2 4 5 5 5 4 7 9 13 24 31 30 32 39 44 41 40 32 32 36 35 32 31 29 35 36 36 30 29 30 32 37 42 43
3 3 5 3 0 2 3 3 5 4 3 2 3 6 5 2 6 9 16 27 34 33 32 39 45 42 36 33 33 33 38 36 32 31 34 36 35 30 28 28 32 35 39 42
1 4 3 6 5 3 2 3 4 3 2 3 1 6 2 6 10 16 22 29 33 32 32 39 45 39 35 33 38 38 40 37 31 32 34 34 34 28 28 28 27 25 31 36
4 1 3 8 5 5 1 2 3 3 2 4 2 5 1 10 12 25 24 31 32 33 32 40 44 32 32 33 37 41 41 36 33 34 35 34 31 29 28 25 26 27 27 27
6 3 6 6 7 3 5 4 4 5 2 3 6 8 12 10 9 18 28 32 33 34 34 41 41 33 34 38 33 45 43 35 36 34 35 32 30 26 24 20 25 24 22 23
4 3 4 6 9 4 10 12 10 8 5 6 6 6 11 10 8 19 28 33 33 33 34 39 36 34 40 40 39 43 40 36 35 35 35 33 26 20 16 12 19 22 26 26
2 2 2 5 3 2 8 7 5 4 4 7 8 10 7 13 22 20 31 31 33 32 36 39 35 35 39 38 47 42 38 36 34 35 34 20 15 14 7 12 19 31 30 26
4 5 2 4 3 6 5 6 5 4 5 4 5 9 4 8 12 22 28 30 29 31 36 41 36 39 36 43 44 40 36 34 33 30 25 11 14 7 10 19 27 27 28 28
5 5 4 4 3 2 5 2 2 5 8 7 8 10 11 15 23 26 29 22 23 29 37 41 40 35 38 42 39 36 31 30 28 24 15 7 11 3 13 21 26 30 32 33
7 5 2 2 2 5 6 2 3 3 8 6 7 7 15 22 17 20 19 24 23 28 35 38 37 34 41 37 35 32 29 27 23 19 12 1 3 10 15 22 28 32 33 31
6 4 3 2 3 4 5 4 8 3 5 6 4 9 14 16 8 7 26 29 25 30 35 37 36 39 36 32 31 29 27 25 18 15 9 1 11 19 22 30 35 38 35 36
3 2 6 2 3 6 4 10 5 1 6 10 7 15 19 4 13 32 32 27 25 30 34 35 36 36 31 29 28 26 25 19 12 6 3 9 14 20 28 35 39 43 46 52
5 5 4 3 3 6 6 5 1 3 19 15 17 23 25 27 29 31 28 25 26 31 34 34 35 34 28 26 26 25 22 14 8 5 10 18 23 27 33 38 42 47 55 55
2 5 3 7 5 3 5 9 15 14 20 22 19 19 22 23 27 27 26 25 25 29 31 31 32 30 25 24 23 23 17 9 10 11 18 25 29 33 40 47 52 54 56 61
2 2 2 2 3 4 22 15 16 17 15 14 15 16 18 23 28 25 24 22 24 28 29 29 30 26 23 22 22 20 12 7 15 20 24 25 29 36 40 44 53 55 54 59
4 2 2 4 10 13 5 12 23 21 15 16 15 16 19 22 25 24 21 19 22 26 26 27 26 23 21 19 18 15 11 9 16 23 27 31 36 40 42 44 45 47 46 48
8 6 4 5 8 4 13 28 29 30 19 18 19 20 20 21 22 21 18 17 21 23 23 25 22 19 19 18 16 12 9 10 17 24 29 32 35 38 44 45 43 42 46 45
Wind_Direction
21 66 259 254 215 201 139 190 247 268 279 358 263 165 191 57 44 36 26 20 12 8 5 3 356 349 339 333 326 316 303 273 270 267 257 246 245 246 249 250 259 258 256 252
24 339 242 279 187 172 183 203 274 282 269 145 277 189 195 217 184 28 13 12 7 2 1 359 356 351 345 338 329 319 308 292 273 259 258 259 248 242 248 250 250 258 256 253
141 269 312 293 244 145 190 162 259 247 316 302 52 320 213 234 255 9 19 9 6 1 355 353 350 348 344 340 333 326 316 302 286 281 263 258 255 249 244 246 249 249 256 255
285 326 5 25 56 53 338 332 255 269 21 282 18 273 265 236 287 322 355 358 355 357 356 352 348 343 342 338 337 337 327 316 306 293 280 262 261 262 254 247 248 252 254 258
285 4 3 26 328 316 239 355 9 326 122 42 346 72 267 315 284 326 343 342 348 351 353 349 346 342 338 339 338 340 326 321 312 305 295 277 262 259 264 260 247 248 253 251
302 304 53 315 303 11 293 11 42 52 78 38 136 101 280 218 218 318 310 336 338 346 349 347 345 339 336 338 339 338 333 323 314 309 305 293 275 263 259 257 254 245 246 248
338 340 322 16 359 358 40 47 348 357 5 230 147 26 247 250 222 263 307 328 338 346 345 346 344 340 337 335 335 335 332 324 318 315 313 303 293 273 259 255 254 254 246 246
46 333 13 325 180 249 358 107 146 219 269 291 317 229 260 246 135 330 320 337 344 341 343 345 345 339 334 331 333 332 333 327 322 317 310 307 297 285 263 257 251 253 253 249
46 291 321 294 293 117 113 49 152 104 20 336 277 291 324 19 334 330 336 340 336 334 338 341 344 338 337 331 331 333 330 326 321 317 313 307 295 291 280 267 249 248 249 252
151 326 312 289 12 30 90 155 32 14 23 301 291 291 246 302 322 321 319 316 329 330 335 341 341 339 340 328 321 329 333 323 321 319 317 309 297 283 284 276 261 253 248 241
120 118 286 323 105 164 1 36 59 116 136 201 296 269 218 238 284 295 296 318 330 331 331 338 339 338 339 327 326 319 325 326 314 311 317 305 299 283 279 276 263 256 240 230
63 142 272 248 278 287 277 155 122 122 252 227 256 272 263 248 293 298 304 324 334 332 329 335 336 334 334 333 326 327 324 327 319 315 313 307 303 287 282 275 253 244 230 228
181 6 348 348 353 11 356 314 139 107 61 218 201 262 215 306 314 327 317 327 328 331 331 335 334 332 326 326 328 329 328 328 322 319 311 303 301 291 285 276 241 233 229 224
135 135 162 190 230 183 291 266 249 188 190 226 233 278 299 304 308 315 323 323 325 331 333 333 335 327 326 330 326 331 331 328 328 322 315 307 298 291 282 269 223 220 207 196
118 203 183 245 255 241 261 269 273 195 207 190 258 231 278 285 292 304 319 326 326 330 331 330 328 326 331 335 327 334 333 331 330 323 316 310 299 283 283 233 208 206 192 187
8 242 190 288 282 240 267 266 252 208 212 247 266 283 240 300 319 312 320 326 324 330 328 331 330 330 336 333 328 333 333 333 329 328 322 316 298 287 221 193 205 190 184 187
168 152 110 260 322 324 314 224 221 255 248 218 271 276 296 305 308 311 314 322 322 326 329 333 333 337 337 330 332 333 334 334 334 333 333 321 310 323 204 189 182 178 180 181
168 147 164 252 15 263 244 267 244 235 265 247 270 273 276 290 311 318 326 316 315 326 332 334 336 339 332 333 337 335 339 340 337 334 334 310 307 256 205 193 181 174 175 174
164 149 199 197 206 291 299 249 227 203 281 263 234 269 299 307 322 314 324 331 324 328 333 334 338 337 337 339 339 344 345 344 345 343 344 336 192 174 172 167 165 162 162 160
81 90 140 144 224 231 243 286 336 129 292 287 256 286 285 317 326 302 326 329 326 330 335 336 340 340 344 343 347 354 351 354 357 358 356 161 150 154 163 159 155 155 159 155
100 110 207 167 258 280 242 307 332 151 253 308 292 292 294 268 278 309 319 327 325 333 338 342 342 347 349 348 355 360 358 2 7 32 67 124 144 148 150 151 149 149 146 142
170 154 201 154 204 272 355 1 296 260 323 307 313 317 314 313 314 314 319 323 329 335 341 345 348 352 355 358 360 359 5 4 28 62 113 125 135 137 136 144 142 141 136 131
255 181 191 184 224 249 333 332 323 327 311 303 311 313 316 318 329 320 321 324 331 338 346 349 352 358 3 5 3 1 12 37 79 105 117 120 131 128 126 132 137 134 131 127
267 162 188 23 292 283 321 327 340 325 316 329 331 327 333 327 328 321 319 325 333 341 350 350 358 4 5 9 5 4 11 71 107 113 117 122 128 125 122 126 130 127 126 124
213 136 188 267 287 296 239 349 352 341 345 338 336 348 345 340 334 322 318 326 336 344 352 355 5 7 5 12 6 9 21 93 114 121 125 126 129 129 129 123 122 120 118 120
189 201 179 234 234 218 295 314 316 321 320 332 336 337 342 340 332 323 317 328 339 348 355 359 9 12 7 15 12 21 39 104 116 117 119 122 124 121 118 113 110 113 119 123